Weather History for KBGM - March, 2013

Change the Weather History Date:

Saturday, March 23, 2013

  Actual Average Record
Temperature  
Mean Temperature 30 °F 35 °F  
Max Temperature 34 °F 44 °F 71 °F (2012)
Min Temperature 25 °F 27 °F 9 °F (1959)
Degree Days  
Heating Degree Days 35 30  
Month to date heating degree days 839 774  
Since 1 July heating degree days 5723 5973  
Cooling Degree Days 0 0  
Month to date cooling degree days 0 0  
Year to date cooling degree days 0 0  
Moisture  
Dew Point 20 °F    
Average Humidity 70    
Maximum Humidity 88    
Minimum Humidity 51    
Precipitation  
Precipitation 0.01 in 0.10 in 0.74 in (1968)
Month to date precipitation 1.56 2.14  
Year to date precipitation 6.11 6.90  
Snow  
Snow 0.60 in 0.40 in 7.30 in (2005)
Month to date snowfall 14.0 12.4  
Since 1 July snowfall 67.8 76.3  
Snow Depth 4.00 in    
Sea Level Pressure  
Sea Level Pressure 29.86 in    
Wind  
Wind Speed 11 mph (WNW)    
Max Wind Speed 20 mph    
Max Gust Speed 29 mph    
Visibility 7 miles    
Events Snow    
T = Trace of Precipitation, MM = Missing Value Source: NWS Daily Summary

Daily Weather History Graph

Daily Weather History Graph

Search for Another Location

Airport or City:

Trip Planner

Search our weather history database for the weather conditions in past years. The results will help you decide how hot, cold, wet, or windy it might be!

Date:

Astronomy

Mar. 23, 2013 Rise Set
Actual Time 7:01 AM EDT 7:19 PM EDT
Civil Twilight 6:33 AM EDT 7:47 PM EDT
Nautical Twilight 6:00 AM EDT 8:20 PM EDT
Astronomical Twilight 5:27 AM EDT 8:54 PM EDT
Moon 3:40 PM EDT 4:40 AM EDT
Length of Visible Light 13h 14m
Length of Day
12h 18m
Waxing Gibbous, 85% of the Moon is Illuminated
Mar 23
Waxing Gibbous
Mar 27
Full
Apr 3
Last Quarter
Apr 10
New
Apr 18
First Quarter

Hourly Weather History & Observations

Time (EDT) Temp. Windchill Dew Point Humidity Pressure Visibility Wind Dir Wind Speed Gust Speed Precip Events Conditions
12:53 AM 26.1 °F 15.6 °F 18.0 °F 71% 29.88 in 10.0 mi West 11.5 mph - N/A   Overcast
1:12 AM 26.6 °F 17.5 °F 17.6 °F 69% 29.81 in 10.0 mi WNW 9.2 mph 17.3 mph N/A   Overcast
1:53 AM 26.1 °F 14.5 °F 18.0 °F 71% 29.86 in 10.0 mi West 13.8 mph - N/A   Overcast
2:08 AM 26.6 °F 15.7 °F 17.6 °F 69% 29.81 in 10.0 mi West 12.7 mph - N/A   Overcast
2:51 AM 26.6 °F 16.2 °F 19.4 °F 74% 29.81 in 10.0 mi West 11.5 mph - N/A   Overcast
2:53 AM 26.1 °F 14.5 °F 19.0 °F 75% 29.87 in 10.0 mi West 13.8 mph - N/A   Overcast
3:53 AM 26.1 °F 16.2 °F 19.0 °F 75% 29.86 in 7.0 mi West 10.4 mph - 0.00 in Snow Light Snow
4:23 AM 24.8 °F 16.1 °F 21.2 °F 86% 29.80 in 2.5 mi West 8.1 mph - 0.00 in Snow Light Snow
4:33 AM 24.8 °F 16.1 °F 21.2 °F 86% 29.80 in 3.0 mi West 8.1 mph - 0.00 in Snow Light Snow
4:49 AM 24.8 °F 15.3 °F 21.2 °F 86% 29.80 in 4.0 mi West 9.2 mph - 0.00 in Snow Light Snow
4:53 AM 25.0 °F 15.5 °F 21.0 °F 85% 29.86 in 5.0 mi West 9.2 mph - 0.00 in Snow Light Snow
5:33 AM 24.8 °F 14.6 °F 21.2 °F 86% 29.80 in 4.0 mi West 10.4 mph - 0.00 in Snow Light Snow
5:45 AM 24.8 °F 15.3 °F 21.2 °F 86% 29.80 in 5.0 mi West 9.2 mph - 0.00 in Snow Light Snow
5:53 AM 25.0 °F 15.5 °F 21.0 °F 85% 29.87 in 7.0 mi West 9.2 mph - 0.00 in Snow Light Snow
6:53 AM 25.0 °F 14.2 °F 21.0 °F 85% 29.87 in 6.0 mi West 11.5 mph - 0.00 in Snow Light Snow
7:07 AM 24.8 °F 14.6 °F 21.2 °F 86% 29.82 in 1.8 mi West 10.4 mph - 0.00 in Snow Light Snow
7:13 AM 24.8 °F 14.6 °F 21.2 °F 86% 29.81 in 1.5 mi West 10.4 mph - 0.00 in Snow Light Snow
7:24 AM 24.8 °F 14.6 °F 21.2 °F 86% 29.82 in 2.0 mi West 10.4 mph - 0.00 in Snow Light Snow
7:35 AM 24.8 °F 15.3 °F 21.2 °F 86% 29.82 in 2.0 mi West 9.2 mph - 0.00 in Snow Light Snow
7:46 AM 24.8 °F 16.1 °F 21.2 °F 86% 29.82 in 1.5 mi West 8.1 mph - 0.00 in Snow Light Snow
7:53 AM 25.0 °F 17.1 °F 21.9 °F 88% 29.88 in 1.2 mi WNW 6.9 mph - 0.00 in Snow Light Snow
8:01 AM 24.8 °F 16.1 °F 21.2 °F 86% 29.82 in 1.2 mi West 8.1 mph - 0.00 in Snow Light Snow
8:14 AM 24.8 °F 16.1 °F 21.2 °F 86% 29.82 in 1.5 mi West 8.1 mph - 0.01 in Snow Light Snow
8:50 AM 26.6 °F 18.2 °F 23.0 °F 86% 29.82 in 1.5 mi WNW 8.1 mph - 0.01 in Snow Light Snow
8:53 AM 26.1 °F 16.2 °F 23.0 °F 88% 29.88 in 1.5 mi WNW 10.4 mph - 0.01 in Snow Light Snow
9:18 AM 26.6 °F 16.8 °F 23.0 °F 86% 29.82 in 2.5 mi WNW 10.4 mph - 0.00 in Snow Light Snow
9:44 AM 28.4 °F 18.0 °F 23.0 °F 80% 29.81 in 2.5 mi WNW 12.7 mph 21.9 mph 0.00 in Snow Light Snow
9:53 AM 28.0 °F 18.6 °F 21.9 °F 78% 29.87 in 2.5 mi NW 10.4 mph 19.6 mph 0.00 in Snow Light Snow
10:05 AM 28.4 °F 18.5 °F 21.2 °F 74% 29.81 in 8.0 mi WNW 11.5 mph 20.7 mph 0.00 in Snow Light Snow
10:53 AM 28.9 °F 18.6 °F 21.0 °F 72% 29.88 in 8.0 mi WNW 12.7 mph 18.4 mph 0.00 in Snow Light Snow
11:07 AM 28.4 °F 18.0 °F 19.4 °F 69% 29.83 in 10.0 mi WNW 12.7 mph 20.7 mph 0.00 in   Overcast
11:21 AM 30.2 °F 20.2 °F 19.4 °F 64% 29.83 in 10.0 mi WNW 12.7 mph 20.7 mph 0.00 in   Overcast
11:30 AM 30.2 °F 19.8 °F 19.4 °F 64% 29.83 in 10.0 mi WNW 13.8 mph 20.7 mph 0.00 in   Overcast
11:48 AM 30.2 °F 19.3 °F 19.4 °F 64% 29.83 in 10.0 mi WNW 15.0 mph 23.0 mph 0.00 in   Overcast
11:53 AM 30.0 °F 19.5 °F 19.0 °F 64% 29.89 in 10.0 mi WNW 13.8 mph 19.6 mph 0.00 in   Overcast
12:39 PM 32.0 °F 21.2 °F 17.6 °F 55% 29.84 in 10.0 mi NW 16.1 mph 28.8 mph N/A   Overcast
12:53 PM 32.0 °F 21.6 °F 18.0 °F 56% 29.90 in 10.0 mi WNW 15.0 mph 24.2 mph N/A   Overcast
1:53 PM 34.0 °F 24.2 °F 18.0 °F 52% 29.89 in 10.0 mi WNW 15.0 mph 24.2 mph 0.00 in   Overcast
2:53 PM 33.1 °F 22.6 °F 18.0 °F 54% 29.89 in 8.0 mi NW 16.1 mph 21.9 mph 0.00 in Snow Light Snow
3:53 PM 33.1 °F 23.9 °F 16.0 °F 50% 29.88 in 10.0 mi WNW 12.7 mph 27.6 mph 0.00 in   Overcast
4:53 PM 32.0 °F 20.5 °F 17.1 °F 54% 29.90 in 10.0 mi NW 18.4 mph 26.5 mph N/A   Overcast
5:53 PM 32.0 °F 24.2 °F 18.0 °F 56% 29.92 in 10.0 mi NW 9.2 mph 18.4 mph N/A   Overcast
6:53 PM 30.0 °F 20.0 °F 17.1 °F 59% 29.93 in 10.0 mi NW 12.7 mph 24.2 mph N/A   Partly Cloudy
7:53 PM 30.0 °F 20.5 °F 19.0 °F 64% 29.94 in 10.0 mi NW 11.5 mph 18.4 mph N/A   Overcast
8:22 PM 28.4 °F 18.5 °F 19.4 °F 69% 29.89 in 9.0 mi NNW 11.5 mph - N/A   Overcast
8:36 PM 28.4 °F 19.1 °F 21.2 °F 74% 29.90 in 9.0 mi NNW 10.4 mph - 0.00 in   Overcast
8:53 PM 28.9 °F 20.4 °F 21.0 °F 72% 29.97 in 9.0 mi NW 9.2 mph - 0.00 in Snow Light Snow
9:53 PM 28.9 °F 19.8 °F 18.0 °F 64% 29.95 in 10.0 mi NW 10.4 mph - 0.00 in   Overcast
10:53 PM 28.9 °F 21.9 °F 16.0 °F 58% 29.96 in 10.0 mi NNW 6.9 mph - N/A   Overcast
11:53 PM 27.0 °F 19.5 °F 15.1 °F 61% 29.96 in 10.0 mi NW 6.9 mph - N/A   Clear